Temperature
15 15 15 15 15 15 15 15 15 14 14 14 14 14 14 14 14 14 14 14 14 14 14 14 14 13 13 13 13 13 12 12 12 12 12 12 12 12 12 12 12 12 11
15 15 14 15 15 14 14 14 14 14 14 14 14 14 14 14 14 14 13 14 14 13 13 13 13 13 13 12 12 12 12 12 12 12 12 11 11 11 11 11 11 11 11
15 15 15 15 15 14 14 14 14 14 14 14 14 14 14 14 13 13 13 13 13 13 13 13 13 13 12 12 12 12 12 11 11 11 11 11 11 11 11 11 11 10 10
15 15 15 15 15 14 14 14 14 14 14 14 14 14 14 13 14 13 13 13 13 13 13 13 12 12 12 12 12 11 11 11 11 11 10 10 10 10 10 10 10 10 10
14 15 15 15 14 14 14 14 14 14 14 14 13 13 14 14 14 14 13 13 13 13 13 12 12 12 12 12 11 11 11 11 10 10 10 10 10 10 10 9 9 9 9
14 14 14 14 14 14 14 14 14 14 14 13 13 13 13 14 14 14 13 13 13 13 12 12 12 12 12 11 11 11 11 11 10 10 10 10 9 9 9 9 9 9 9
14 14 14 14 14 14 14 14 14 13 13 13 13 13 13 14 14 13 13 13 13 12 12 12 12 11 11 11 11 11 11 10 10 10 10 9 9 9 9 9 9 9 9
14 14 14 14 14 14 14 14 13 13 13 13 13 12 12 13 13 13 13 13 12 12 12 11 11 11 11 11 11 10 10 10 10 10 10 9 9 9 9 9 8 8 8
14 14 14 14 14 14 14 13 13 13 13 13 12 12 12 12 12 12 12 12 12 12 11 11 11 11 10 10 10 10 10 10 10 9 9 9 9 9 9 9 8 8 8
14 14 14 14 14 14 13 13 13 13 13 12 12 12 12 12 11 11 11 11 11 11 11 10 10 10 10 9 9 9 9 9 9 9 9 9 9 8 8 8 8 8 8
14 14 14 14 13 13 13 13 13 13 12 12 12 11 11 11 11 11 11 11 10 10 10 10 10 9 9 9 9 8 8 8 8 8 8 8 8 8 8 8 8 8 7
14 14 14 14 13 13 13 13 13 12 12 12 11 11 11 10 10 10 10 10 10 10 9 9 9 9 8 8 8 8 8 7 7 7 7 7 7 7 7 7 7 7 7
14 14 13 13 13 13 13 12 12 12 12 11 11 11 10 10 10 10 10 10 9 9 9 8 8 8 8 7 7 7 7 7 7 7 7 7 7 7 7 7 7 7 6
13 13 13 13 13 12 12 12 12 11 11 11 11 10 10 9 9 9 9 9 9 8 8 8 8 7 7 7 7 6 6 6 6 6 6 6 6 6 6 6 6 6 6
13 12 12 12 12 12 11 11 11 11 11 10 10 9 9 9 9 9 8 8 8 8 7 7 7 7 7 6 6 6 5 5 5 5 5 5 5 5 5 5 5 5 5
12 12 12 11 11 11 11 10 10 10 10 9 9 9 8 8 8 8 8 7 7 7 7 6 6 6 6 5 5 5 5 5 5 5 4 4 4 4 4 4 4 4 4
11 11 11 10 10 10 10 9 9 9 9 8 8 8 7 7 7 7 7 7 7 7 6 6 6 5 5 4 4 4 4 4 4 4 4 4 3 3 3 3 3 3 3
10 10 10 9 9 9 9 9 8 8 8 7 7 7 7 7 7 7 7 6 6 6 6 6 5 5 4 4 4 4 4 4 3 3 3 3 3 3 3 3 3 3 2
9 9 9 9 8 8 8 8 7 7 7 6 6 6 6 6 6 6 6 6 6 5 5 5 5 4 4 3 3 3 3 3 3 2 2 2 2 2 2 2 2 2 2
9 8 8 8 7 7 7 7 6 6 6 5 5 5 5 5 5 5 5 5 5 5 5 4 4 4 3 3 3 3 2 2 2 2 2 2 2 2 2 1 1 1 1
8 7 7 7 6 6 6 5 5 5 5 5 4 4 4 4 4 4 4 4 4 4 4 4 3 3 3 3 2 2 2 2 2 1 1 1 1 1 1 1 1 0 0
7 6 6 6 5 5 5 4 4 4 4 4 4 3 3 3 3 3 3 3 3 3 3 3 3 3 3 2 2 2 1 1 1 1 1 1 0 0 0 -0 -0 -0 -0
5 5 5 4 4 4 4 3 3 3 3 3 3 3 3 3 3 3 3 3 2 2 2 2 2 2 2 2 1 1 1 0 0 0 0 -0 -0 -0 -1 -1 -1 -1 -1
4 4 4 4 3 3 2 2 2 2 2 2 2 2 2 2 2 2 2 2 2 2 2 2 2 2 1 1 1 0 0 -0 -0 -1 -1 -1 -1 -1 -1 -1 -1 -2 -2
3 3 3 2 2 2 2 2 2 1 1 1 1 1 1 1 1 1 1 1 1 1 1 1 1 0 0 0 -0 -0 -0 -1 -1 -1 -1 -2 -2 -2 -2 -2 -2 -2 -2
3 2 2 2 1 1 1 1 1 1 1 1 1 0 0 1 0 0 0 0 1 1 0 0 -0 -0 -0 -1 -1 -1 -1 -1 -2 -2 -2 -2 -2 -2 -2 -2 -2 -3 -3
Wind_Speed
5 7 7 9 9 9 10 8 8 5 4 4 4 2 1 3 3 3 6 9 9 8 7 7 7 6 6 6 5 4 4 3 2 2 1 1 1 2 2 3 4 4 6
7 5 5 6 6 6 6 6 5 3 3 2 2 2 4 5 5 5 6 9 11 11 10 9 9 9 9 8 7 7 6 6 5 5 4 4 3 2 1 0 1 2 2
8 6 3 4 5 6 6 4 3 2 1 1 2 5 5 5 5 6 7 9 10 12 13 12 11 10 10 10 9 9 9 9 8 8 7 7 6 5 4 3 3 2 1
10 8 4 4 6 7 5 3 2 2 2 2 3 4 3 4 5 8 8 8 9 10 12 13 12 11 10 10 11 11 11 11 11 10 10 9 9 8 8 7 6 5 4
10 8 5 5 7 5 3 3 3 2 2 3 3 3 3 3 5 7 7 8 7 7 8 9 11 11 10 10 10 10 10 10 10 12 12 11 11 11 11 10 9 8 7
10 8 6 6 6 3 3 3 3 3 3 3 3 3 4 5 5 5 6 6 5 5 5 5 6 7 7 7 7 8 8 8 9 10 12 13 13 13 12 12 12 11 10
10 8 5 5 4 3 4 4 4 4 4 2 2 3 5 7 7 5 4 3 2 2 2 2 2 1 1 2 3 5 6 8 8 9 10 11 12 14 15 15 14 12 12
7 7 5 3 3 3 4 4 3 3 3 3 3 2 3 4 3 4 2 2 1 2 3 3 4 4 4 3 3 3 5 6 8 8 8 10 11 12 13 15 16 15 14
7 6 5 4 3 3 4 4 3 4 4 3 4 4 3 3 2 2 0 2 2 2 2 4 5 5 5 5 6 6 6 6 7 7 8 8 8 10 12 13 14 14 15
4 4 4 3 2 2 2 3 3 3 4 4 3 4 4 3 2 2 1 0 2 2 3 3 5 6 6 7 8 9 8 7 6 6 6 6 6 7 8 9 9 10 10
5 4 3 2 1 1 2 2 2 3 3 4 3 2 3 3 4 4 3 2 0 1 2 3 5 7 8 9 9 9 9 8 7 6 6 5 5 5 6 5 5 5 6
3 4 3 1 1 1 1 1 2 3 3 4 3 3 2 3 3 4 5 3 2 1 2 4 5 6 8 9 9 10 10 10 9 8 7 6 6 6 6 5 3 1 1
3 3 2 2 1 1 1 1 2 2 3 3 3 3 3 3 2 3 3 3 2 2 2 3 5 7 8 9 8 9 11 11 10 10 10 10 9 8 7 7 6 4 3
3 3 3 2 2 0 1 1 1 2 1 2 3 2 2 2 1 1 2 2 2 2 2 3 3 6 7 8 8 8 10 11 11 11 11 11 11 11 10 10 10 9 8
4 4 3 2 2 1 1 0 1 1 0 0 1 1 1 0 0 0 0 2 3 4 3 3 2 3 5 7 8 9 9 10 11 11 10 11 11 11 11 11 11 10 8
4 3 3 3 2 1 1 0 0 1 1 1 0 1 1 0 1 1 0 0 1 3 3 2 2 2 4 5 7 8 8 9 11 10 10 10 10 10 10 10 10 10 10
4 3 3 3 2 2 1 1 1 1 2 2 1 2 2 2 1 1 1 1 0 1 3 2 2 2 2 3 4 6 7 8 8 8 8 9 9 9 8 9 9 9 9
4 4 3 3 3 3 2 2 2 2 2 2 3 3 2 2 3 2 2 2 1 1 3 4 2 2 2 2 3 3 4 6 6 6 7 7 7 7 7 7 7 7 7
4 4 4 3 3 3 3 3 3 3 3 3 3 3 3 3 3 2 2 2 1 2 3 4 3 2 2 1 2 2 3 3 3 4 4 4 4 4 5 5 5 6 6
4 4 4 4 4 3 3 3 3 4 5 5 4 4 4 3 3 3 2 2 2 3 4 5 4 3 2 1 2 2 1 1 1 3 3 3 3 3 3 4 4 5 5
4 4 4 4 3 3 2 3 3 5 5 5 5 5 5 6 6 4 3 3 3 3 4 4 3 3 2 2 1 1 1 1 1 3 2 2 2 1 1 2 3 4 4
4 4 3 3 3 3 4 4 5 4 5 5 5 5 5 6 7 9 9 8 6 4 3 3 3 3 3 2 2 2 2 2 1 2 3 3 1 1 0 2 2 4 5
4 4 3 3 4 4 5 6 6 5 5 5 5 4 4 5 6 4 7 9 9 9 6 4 4 3 3 2 3 2 2 1 1 2 2 2 2 1 2 2 2 3 4
4 3 3 3 4 5 6 7 7 5 4 4 4 4 5 4 3 4 4 5 5 6 7 6 5 4 5 4 4 3 2 0 1 1 2 1 2 2 3 5 2 1 2
4 3 3 4 4 5 7 7 6 4 4 4 3 3 4 4 5 5 4 4 4 3 6 9 9 8 7 6 5 3 3 2 1 1 2 1 2 3 3 2 2 2 4
4 4 4 4 4 5 7 7 6 3 4 3 3 3 3 5 5 4 3 4 3 3 3 3 3 3 4 4 4 4 3 2 0 1 2 2 2 3 4 3 3 6 7
Wind_Direction
166 166 169 168 183 183 175 201 224 203 204 231 234 245 281 274 265 222 191 191 197 207 222 234 235 232 229 226 223 215 211 208 204 199 185 161 119 90 76 68 66 66 63
170 160 172 166 186 179 182 201 225 191 209 242 275 264 250 250 243 241 212 207 211 216 223 232 239 241 240 237 234 227 222 221 222 222 221 219 215 208 203 173 86 67 60
165 160 178 167 185 188 195 208 243 212 229 227 271 271 261 259 254 250 239 221 218 222 228 232 239 245 247 246 245 240 232 226 224 225 226 225 226 227 229 232 230 231 242
170 169 180 184 195 195 191 188 221 220 230 224 245 257 253 250 259 264 256 237 223 221 225 230 235 240 247 251 252 250 243 232 226 225 226 226 227 231 233 235 235 236 240
176 174 186 197 199 192 186 192 207 216 234 242 255 262 263 253 243 253 257 255 240 224 216 224 231 237 245 253 260 261 258 249 235 229 227 226 228 232 233 234 233 234 236
180 182 188 200 197 180 189 198 211 225 232 241 267 270 262 258 245 237 240 245 248 235 222 214 221 232 242 253 267 274 276 274 259 243 235 233 233 233 233 233 234 234 231
185 186 185 200 197 187 197 208 208 220 231 230 259 280 267 250 241 233 220 219 231 213 169 154 144 151 203 246 271 285 290 289 284 270 254 245 241 238 236 235 234 231 228
183 188 192 193 192 193 207 217 212 209 223 201 193 244 293 298 267 229 189 172 141 92 98 94 80 67 59 65 42 359 328 312 300 293 280 263 255 248 243 239 236 233 229
183 187 195 199 200 198 209 216 211 205 223 229 204 201 227 255 319 333 171 122 113 94 85 82 72 60 56 55 43 26 10 350 330 312 298 283 272 266 259 252 245 238 230
164 169 179 188 194 205 218 226 220 223 220 235 239 228 224 222 236 285 312 86 98 89 79 75 70 64 59 63 53 39 27 10 351 333 316 303 292 290 285 273 259 241 229
149 151 162 175 191 202 218 229 238 240 229 228 225 228 243 247 227 228 249 241 86 62 70 66 70 66 63 67 56 42 33 23 9 354 344 347 343 337 333 311 285 246 229
150 140 142 141 128 128 216 237 244 247 243 242 237 224 212 220 219 220 234 227 206 149 74 54 59 67 68 65 55 49 43 37 29 23 18 20 20 12 10 5 355 341 233
145 145 142 143 129 162 250 250 242 248 247 246 244 245 236 232 228 216 220 226 208 165 125 70 49 64 67 63 52 54 48 45 40 38 38 41 41 40 35 31 34 40 46
126 124 129 124 118 118 262 262 245 245 245 245 253 254 243 248 248 216 204 196 211 203 167 135 64 57 68 62 51 61 54 51 49 48 50 50 51 50 51 51 51 54 58
121 119 119 118 103 87 43 293 231 221 164 220 250 241 217 215 325 268 218 193 196 211 204 145 120 59 74 72 60 72 65 58 56 58 58 56 57 57 56 57 55 54 54
105 115 123 123 119 110 97 135 139 94 111 100 97 118 106 92 72 41 56 220 203 196 176 122 115 108 84 89 74 75 73 66 59 59 59 62 62 62 59 58 56 54 53
111 111 106 104 100 89 71 88 106 104 118 107 90 106 98 82 84 53 57 85 98 142 158 119 103 108 97 84 80 77 77 76 66 60 63 63 62 61 59 57 55 53 50
97 94 90 89 84 76 64 78 86 85 101 111 102 102 97 86 75 56 69 81 83 90 137 141 125 122 105 106 98 86 82 83 79 62 59 59 59 56 53 51 49 46 42
92 88 87 89 88 81 73 78 94 92 90 90 95 103 102 103 92 75 74 77 70 71 93 124 124 117 111 117 105 82 83 70 80 70 55 50 47 41 40 43 41 36 31
101 95 91 88 85 81 82 85 97 97 91 82 80 83 82 90 103 103 92 87 92 90 97 109 112 115 120 131 99 85 72 33 37 53 33 23 23 25 36 44 41 27 14
101 98 98 99 97 92 93 105 114 117 116 105 88 79 77 82 83 87 88 75 89 104 110 115 122 118 119 105 110 81 72 357 38 35 6 339 352 6 27 48 37 13 357
115 111 113 117 115 108 117 124 123 116 119 118 110 99 94 84 86 85 82 75 77 98 122 127 132 137 136 122 104 86 73 65 349 351 19 324 343 19 88 99 25 358 348
123 121 120 116 117 125 139 135 127 121 121 124 125 120 109 99 86 85 86 78 67 65 74 117 126 137 132 127 114 88 74 83 222 262 37 326 337 354 356 6 346 337 338
129 132 128 125 126 141 147 143 135 122 123 126 128 129 124 118 118 110 98 87 73 57 59 65 95 95 99 97 105 128 148 13 308 330 90 329 332 334 331 320 289 302 323
143 146 141 141 140 146 152 147 139 126 127 125 118 119 128 132 139 131 119 115 102 89 83 86 91 94 96 95 89 83 72 62 15 344 36 50 341 339 325 313 300 315 318
158 155 153 157 158 159 167 165 158 141 145 146 136 128 138 151 157 149 140 144 145 150 127 109 96 101 106 105 93 103 124 127 133 310 13 49 17 8 335 313 327 328 321
Height
1569 1570 1571 1572 1574 1575 1576 1577 1578 1579 1580 1581 1581 1581 1581 1581 1581 1580 1580 1579 1579 1579 1578 1577 1577 1576 1576 1575 1575 1574 1573 1573 1572 1572 1571 1571 1570 1570 1569 1569 1568 1568 1568
1568 1569 1571 1572 1573 1574 1575 1576 1577 1578 1578 1579 1579 1579 1579 1579 1579 1579 1578 1578 1577 1577 1576 1576 1575 1574 1574 1573 1573 1572 1572 1572 1571 1571 1570 1570 1569 1569 1568 1568 1568 1567 1567
1566 1568 1569 1570 1572 1573 1574 1575 1576 1576 1577 1577 1577 1577 1577 1577 1577 1577 1576 1576 1575 1575 1574 1574 1573 1572 1572 1571 1571 1570 1570 1570 1569 1569 1569 1568 1568 1567 1567 1567 1566 1566 1566
1564 1566 1567 1569 1570 1571 1572 1573 1574 1574 1575 1575 1575 1575 1575 1574 1574 1574 1574 1573 1573 1572 1572 1571 1571 1570 1569 1569 1569 1568 1568 1567 1567 1567 1567 1566 1566 1566 1565 1565 1565 1564 1564
1562 1564 1565 1567 1568 1569 1570 1570 1571 1572 1572 1572 1572 1572 1572 1571 1571 1571 1571 1571 1570 1569 1569 1568 1568 1567 1567 1566 1566 1565 1565 1564 1564 1563 1563 1563 1563 1563 1563 1563 1562 1562 1562
1560 1561 1563 1564 1565 1566 1567 1568 1568 1569 1569 1569 1569 1569 1568 1568 1568 1567 1567 1567 1567 1566 1566 1565 1564 1564 1563 1563 1563 1562 1562 1561 1561 1560 1560 1560 1560 1560 1560 1560 1560 1560 1560
1557 1559 1560 1561 1562 1563 1564 1565 1565 1566 1566 1566 1566 1565 1564 1564 1564 1563 1563 1563 1563 1563 1562 1562 1561 1561 1560 1559 1559 1559 1558 1558 1557 1557 1557 1556 1556 1556 1556 1556 1556 1556 1557
1554 1556 1557 1558 1559 1560 1561 1561 1562 1562 1563 1563 1563 1562 1561 1561 1559 1559 1560 1560 1560 1560 1559 1559 1558 1557 1557 1556 1555 1555 1554 1554 1553 1553 1553 1552 1552 1552 1552 1552 1552 1552 1553
1551 1552 1553 1555 1556 1556 1557 1558 1558 1558 1559 1559 1560 1560 1559 1557 1557 1557 1557 1557 1556 1556 1556 1555 1554 1554 1553 1552 1551 1551 1550 1550 1549 1549 1548 1548 1548 1548 1547 1547 1547 1547 1548
1547 1548 1549 1550 1551 1552 1553 1553 1554 1554 1554 1554 1555 1555 1555 1555 1555 1553 1553 1553 1553 1552 1552 1551 1550 1550 1549 1548 1547 1547 1546 1545 1545 1544 1544 1544 1543 1543 1543 1542 1542 1542 1543
1542 1544 1545 1546 1547 1548 1548 1549 1549 1549 1549 1549 1549 1549 1550 1550 1550 1550 1549 1549 1549 1548 1548 1547 1546 1546 1545 1544 1543 1542 1542 1541 1541 1540 1540 1539 1539 1539 1538 1538 1538 1538 1539
1538 1539 1541 1542 1542 1543 1543 1544 1544 1544 1544 1544 1544 1544 1544 1544 1544 1545 1544 1544 1544 1544 1544 1543 1542 1541 1540 1539 1539 1538 1538 1537 1536 1536 1535 1535 1535 1535 1534 1534 1534 1534 1534
1533 1535 1536 1537 1537 1538 1538 1539 1538 1538 1538 1538 1538 1538 1538 1538 1539 1539 1539 1539 1539 1539 1539 1539 1538 1537 1536 1535 1535 1534 1534 1533 1533 1532 1532 1531 1531 1531 1530 1530 1530 1530 1530
1528 1530 1531 1531 1532 1532 1533 1533 1533 1533 1532 1532 1532 1532 1532 1533 1533 1533 1534 1534 1534 1534 1534 1534 1534 1533 1533 1532 1531 1531 1530 1529 1529 1528 1528 1528 1527 1527 1527 1527 1527 1527 1527
1524 1525 1526 1527 1527 1527 1528 1528 1527 1527 1527 1527 1527 1527 1527 1527 1528 1528 1528 1529 1530 1529 1529 1529 1529 1529 1529 1529 1528 1527 1526 1526 1525 1525 1525 1524 1524 1524 1524 1524 1524 1524 1524
1520 1521 1521 1521 1522 1522 1522 1522 1522 1521 1521 1521 1521 1521 1521 1522 1522 1523 1523 1523 1524 1525 1525 1524 1525 1525 1525 1525 1524 1523 1523 1522 1522 1522 1522 1521 1521 1521 1521 1521 1521 1521 1521
1515 1515 1516 1517 1517 1517 1517 1517 1517 1516 1516 1516 1516 1516 1517 1517 1517 1518 1518 1519 1519 1520 1520 1520 1521 1521 1521 1521 1520 1520 1519 1519 1519 1519 1519 1519 1519 1518 1518 1518 1518 1518 1519
1510 1511 1511 1512 1512 1512 1512 1512 1512 1512 1512 1511 1512 1512 1512 1513 1513 1513 1514 1514 1514 1515 1516 1516 1516 1517 1517 1517 1517 1517 1517 1517 1517 1517 1516 1516 1516 1516 1516 1515 1516 1516 1516
1505 1506 1507 1507 1507 1507 1507 1507 1507 1507 1507 1507 1507 1508 1508 1509 1509 1509 1509 1510 1510 1511 1511 1512 1513 1513 1514 1514 1514 1514 1514 1514 1514 1514 1514 1514 1513 1513 1513 1512 1512 1512 1512
1501 1502 1502 1502 1502 1503 1503 1503 1503 1503 1503 1503 1504 1504 1504 1505 1505 1506 1506 1506 1507 1507 1507 1508 1509 1509 1510 1510 1511 1511 1511 1511 1511 1511 1511 1511 1511 1510 1510 1509 1509 1509 1509
1497 1497 1498 1498 1498 1498 1499 1499 1499 1499 1499 1500 1500 1501 1501 1501 1502 1502 1503 1503 1503 1504 1504 1505 1505 1506 1507 1507 1508 1508 1509 1509 1508 1509 1508 1508 1508 1507 1507 1506 1506 1506 1505
1493 1494 1494 1494 1494 1495 1495 1495 1495 1496 1496 1496 1497 1497 1498 1498 1498 1499 1499 1500 1501 1501 1501 1502 1503 1503 1504 1504 1505 1506 1506 1506 1506 1507 1506 1506 1505 1505 1504 1504 1503 1503 1502
1489 1490 1490 1490 1491 1491 1491 1491 1492 1492 1493 1493 1494 1494 1495 1495 1496 1496 1497 1497 1498 1498 1499 1500 1500 1501 1501 1502 1502 1503 1503 1503 1503 1503 1503 1503 1503 1502 1502 1501 1500 1500 1499
1486 1486 1487 1487 1487 1488 1488 1488 1489 1489 1490 1491 1491 1492 1492 1493 1493 1494 1494 1495 1496 1496 1497 1497 1498 1498 1499 1500 1500 1501 1501 1501 1501 1501 1501 1501 1500 1499 1499 1498 1498 1497 1497
1483 1483 1483 1484 1484 1485 1485 1486 1486 1487 1487 1488 1489 1489 1490 1491 1491 1492 1492 1493 1493 1494 1494 1495 1496 1496 1497 1497 1497 1498 1498 1498 1498 1498 1498 1498 1497 1496 1496 1495 1495 1495 1494
1479 1480 1480 1481 1482 1482 1483 1483 1484 1484 1485 1486 1487 1487 1488 1489 1489 1489 1490 1490 1491 1492 1492 1493 1493 1494 1494 1495 1495 1496 1496 1496 1495 1495 1495 1495 1494 1494 1493 1493 1492 1492 1491